Location: Lucerne Valley
(34.4439°N, 116.9669°E)
Time: 06:14:18
(UTC-08:00)

Tiangong 2 - Pass Details

Date: 11 October 2017
Orbit: 386 x 390 km, 42.8° (Epoch: 14 December)

Event Time Altitude Azimuth Distance (km) Brightness Sun altitude
Exits shadow 13:56:57 24° 334° (NNW) 862 2.6 -16.9°
Maximum altitude 13:57:20 24° 346° (NNW) 847 2.7 -16.8°
Drops below altitude 10° 14:00:02 10° 43° (NE) 1,423 4.6 -16.2°
Sets 14:02:22 0° 58° (ENE) 2,281 6.1 -15.8°
